<?xml version="1.0" encoding="UTF-8" standalone="no" ?>
<gpx xmlns="http://www.topografix.com/GPX/1/1" xmlns:xsi="http://www.w3.org/2001/XMLSchema-instance" xsi:schemaLocation="http://www.topografix.com/GPX/1/1 http://www.topografix.com/GPX/1/1/gpx.xsd" version="1.1" creator="VisuGPX - https://www.visugpx.com">
  <metadata>
    <name>N°23 Le Canal du Capcir</name>
    <desc><![CDATA[

comment ...]]></desc>
  </metadata>
  <trk>
    <name><![CDATA[N°23 Le Canal du Capcir]]></name>
    <desc><![CDATA[comment ...]]></desc>
    <extensions>
      <line xmlns="http://www.topografix.com/GPX/gpx_style/0/2">
        <color>009494</color>
        <width>4</width>
          <extensions>
            <sens>1</sens>
          </extensions>
      </line>
    </extensions>
    <trkseg>
      <trkpt lat="42.57977" lon="2.10209">
        <ele>1541</ele>
        <time>2021-11-03T10:29:16Z</time>
      </trkpt>
      <trkpt lat="42.57998" lon="2.10188">
        <ele>1541</ele>
        <time>2021-11-03T10:29:16Z</time>
      </trkpt>
      <trkpt lat="42.58051" lon="2.10156">
        <ele>1543</ele>
        <time>2021-11-03T10:29:16Z</time>
      </trkpt>
      <trkpt lat="42.58067" lon="2.10141">
        <ele>1543</ele>
        <time>2021-11-03T10:29:16Z</time>
      </trkpt>
      <trkpt lat="42.58067" lon="2.10101">
        <ele>1544</ele>
        <time>2021-11-03T10:29:16Z</time>
      </trkpt>
      <trkpt lat="42.58044" lon="2.10094">
        <ele>1543</ele>
        <time>2021-11-03T10:29:16Z</time>
      </trkpt>
      <trkpt lat="42.5789" lon="2.10087">
        <ele>1541</ele>
        <time>2021-11-03T10:29:16Z</time>
      </trkpt>
      <trkpt lat="42.57865" lon="2.10076">
        <ele>1540</ele>
        <time>2021-11-03T10:29:16Z</time>
      </trkpt>
      <trkpt lat="42.57815" lon="2.10017">
        <ele>1540</ele>
        <time>2021-11-03T10:29:16Z</time>
      </trkpt>
      <trkpt lat="42.57789" lon="2.09967">
        <ele>1541</ele>
        <time>2021-11-03T10:29:16Z</time>
      </trkpt>
      <trkpt lat="42.57793" lon="2.09931">
        <ele>1542</ele>
        <time>2021-11-03T10:29:16Z</time>
      </trkpt>
      <trkpt lat="42.57811" lon="2.09893">
        <ele>1542</ele>
        <time>2021-11-03T10:29:16Z</time>
      </trkpt>
      <trkpt lat="42.57829" lon="2.09808">
        <ele>1544</ele>
        <time>2021-11-03T10:29:16Z</time>
      </trkpt>
      <trkpt lat="42.57876" lon="2.09706">
        <ele>1546</ele>
        <time>2021-11-03T10:29:16Z</time>
      </trkpt>
      <trkpt lat="42.57901" lon="2.09674">
        <ele>1547</ele>
        <time>2021-11-03T10:29:16Z</time>
      </trkpt>
      <trkpt lat="42.58024" lon="2.09594">
        <ele>1549</ele>
        <time>2021-11-03T10:29:16Z</time>
      </trkpt>
      <trkpt lat="42.58132" lon="2.09536">
        <ele>1552</ele>
        <time>2021-11-03T10:29:16Z</time>
      </trkpt>
      <trkpt lat="42.58223" lon="2.09482">
        <ele>1555</ele>
        <time>2021-11-03T10:29:16Z</time>
      </trkpt>
      <trkpt lat="42.58496" lon="2.09595">
        <ele>1560</ele>
        <time>2021-11-03T10:29:16Z</time>
      </trkpt>
      <trkpt lat="42.58532" lon="2.09575">
        <ele>1562</ele>
        <time>2021-11-03T10:29:16Z</time>
      </trkpt>
      <trkpt lat="42.58591" lon="2.0959">
        <ele>1564</ele>
        <time>2021-11-03T10:29:16Z</time>
      </trkpt>
      <trkpt lat="42.58683" lon="2.09675">
        <ele>1564</ele>
        <time>2021-11-03T10:29:16Z</time>
      </trkpt>
      <trkpt lat="42.5896" lon="2.09791">
        <ele>1566</ele>
        <time>2021-11-03T10:29:16Z</time>
      </trkpt>
      <trkpt lat="42.59042" lon="2.09797">
        <ele>1568</ele>
        <time>2021-11-03T10:29:16Z</time>
      </trkpt>
      <trkpt lat="42.59098" lon="2.09789">
        <ele>1569</ele>
        <time>2021-11-03T10:29:16Z</time>
      </trkpt>
      <trkpt lat="42.59151" lon="2.09795">
        <ele>1570</ele>
        <time>2021-11-03T10:29:16Z</time>
      </trkpt>
      <trkpt lat="42.59311" lon="2.09812">
        <ele>1574</ele>
        <time>2021-11-03T10:29:16Z</time>
      </trkpt>
      <trkpt lat="42.59348" lon="2.09791">
        <ele>1576</ele>
        <time>2021-11-03T10:29:16Z</time>
      </trkpt>
      <trkpt lat="42.5943" lon="2.09778">
        <ele>1578</ele>
        <time>2021-11-03T10:29:16Z</time>
      </trkpt>
      <trkpt lat="42.59487" lon="2.09799">
        <ele>1577</ele>
        <time>2021-11-03T10:29:16Z</time>
      </trkpt>
      <trkpt lat="42.59855" lon="2.09963">
        <ele>1568</ele>
        <time>2021-11-03T10:29:16Z</time>
      </trkpt>
      <trkpt lat="42.59906" lon="2.09965">
        <ele>1568</ele>
        <time>2021-11-03T10:29:16Z</time>
      </trkpt>
      <trkpt lat="42.60056" lon="2.10019">
        <ele>1566</ele>
        <time>2021-11-03T10:29:16Z</time>
      </trkpt>
      <trkpt lat="42.60074" lon="2.09982">
        <ele>1569</ele>
        <time>2021-11-03T10:29:16Z</time>
      </trkpt>
      <trkpt lat="42.60087" lon="2.09964">
        <ele>1570</ele>
        <time>2021-11-03T10:29:16Z</time>
      </trkpt>
      <trkpt lat="42.60109" lon="2.09959">
        <ele>1570</ele>
        <time>2021-11-03T10:29:16Z</time>
      </trkpt>
      <trkpt lat="42.60185" lon="2.09965">
        <ele>1569</ele>
        <time>2021-11-03T10:29:16Z</time>
      </trkpt>
      <trkpt lat="42.60214" lon="2.09953">
        <ele>1569</ele>
        <time>2021-11-03T10:29:16Z</time>
      </trkpt>
      <trkpt lat="42.60227" lon="2.09931">
        <ele>1570</ele>
        <time>2021-11-03T10:29:16Z</time>
      </trkpt>
      <trkpt lat="42.60244" lon="2.09928">
        <ele>1570</ele>
        <time>2021-11-03T10:29:16Z</time>
      </trkpt>
      <trkpt lat="42.60261" lon="2.09931">
        <ele>1569</ele>
        <time>2021-11-03T10:29:16Z</time>
      </trkpt>
      <trkpt lat="42.6027" lon="2.09922">
        <ele>1570</ele>
        <time>2021-11-03T10:29:16Z</time>
      </trkpt>
      <trkpt lat="42.60279" lon="2.09904">
        <ele>1572</ele>
        <time>2021-11-03T10:29:16Z</time>
      </trkpt>
      <trkpt lat="42.60289" lon="2.09902">
        <ele>1572</ele>
        <time>2021-11-03T10:29:16Z</time>
      </trkpt>
      <trkpt lat="42.60309" lon="2.09917">
        <ele>1570</ele>
        <time>2021-11-03T10:29:16Z</time>
      </trkpt>
      <trkpt lat="42.60324" lon="2.09939">
        <ele>1568</ele>
        <time>2021-11-03T10:29:16Z</time>
      </trkpt>
      <trkpt lat="42.60358" lon="2.10007">
        <ele>1564</ele>
        <time>2021-11-03T10:29:16Z</time>
      </trkpt>
      <trkpt lat="42.60372" lon="2.10019">
        <ele>1563</ele>
        <time>2021-11-03T10:29:16Z</time>
      </trkpt>
      <trkpt lat="42.60386" lon="2.10013">
        <ele>1564</ele>
        <time>2021-11-03T10:29:16Z</time>
      </trkpt>
      <trkpt lat="42.60393" lon="2.09982">
        <ele>1566</ele>
        <time>2021-11-03T10:29:16Z</time>
      </trkpt>
      <trkpt lat="42.60396" lon="2.0996">
        <ele>1568</ele>
        <time>2021-11-03T10:29:16Z</time>
      </trkpt>
      <trkpt lat="42.60412" lon="2.09943">
        <ele>1568</ele>
        <time>2021-11-03T10:29:16Z</time>
      </trkpt>
      <trkpt lat="42.60449" lon="2.09915">
        <ele>1570</ele>
        <time>2021-11-03T10:29:16Z</time>
      </trkpt>
      <trkpt lat="42.60461" lon="2.099">
        <ele>1571</ele>
        <time>2021-11-03T10:29:16Z</time>
      </trkpt>
      <trkpt lat="42.60474" lon="2.09879">
        <ele>1573</ele>
        <time>2021-11-03T10:29:16Z</time>
      </trkpt>
      <trkpt lat="42.60483" lon="2.09859">
        <ele>1575</ele>
        <time>2021-11-03T10:29:16Z</time>
      </trkpt>
      <trkpt lat="42.60494" lon="2.09841">
        <ele>1577</ele>
        <time>2021-11-03T10:29:16Z</time>
      </trkpt>
      <trkpt lat="42.60566" lon="2.09853">
        <ele>1578</ele>
        <time>2021-11-03T10:29:16Z</time>
      </trkpt>
      <trkpt lat="42.60845" lon="2.09798">
        <ele>1579</ele>
        <time>2021-11-03T10:29:16Z</time>
      </trkpt>
      <trkpt lat="42.60869" lon="2.09807">
        <ele>1577</ele>
        <time>2021-11-03T10:29:16Z</time>
      </trkpt>
      <trkpt lat="42.609" lon="2.09821">
        <ele>1574</ele>
        <time>2021-11-03T10:29:16Z</time>
      </trkpt>
      <trkpt lat="42.6092" lon="2.09806">
        <ele>1576</ele>
        <time>2021-11-03T10:29:16Z</time>
      </trkpt>
      <trkpt lat="42.60931" lon="2.09781">
        <ele>1578</ele>
        <time>2021-11-03T10:29:16Z</time>
      </trkpt>
      <trkpt lat="42.60936" lon="2.09766">
        <ele>1580</ele>
        <time>2021-11-03T10:29:16Z</time>
      </trkpt>
      <trkpt lat="42.60961" lon="2.0976">
        <ele>1579</ele>
        <time>2021-11-03T10:29:16Z</time>
      </trkpt>
      <trkpt lat="42.6099" lon="2.09763">
        <ele>1578</ele>
        <time>2021-11-03T10:29:16Z</time>
      </trkpt>
      <trkpt lat="42.60993" lon="2.09743">
        <ele>1578</ele>
        <time>2021-11-03T10:29:16Z</time>
      </trkpt>
      <trkpt lat="42.60992" lon="2.09713">
        <ele>1578</ele>
        <time>2021-11-03T10:29:16Z</time>
      </trkpt>
      <trkpt lat="42.60973" lon="2.09647">
        <ele>1579</ele>
        <time>2021-11-03T10:29:16Z</time>
      </trkpt>
      <trkpt lat="42.60967" lon="2.09629">
        <ele>1581</ele>
        <time>2021-11-03T10:29:16Z</time>
      </trkpt>
      <trkpt lat="42.60966" lon="2.09608">
        <ele>1582</ele>
        <time>2021-11-03T10:29:16Z</time>
      </trkpt>
      <trkpt lat="42.60976" lon="2.09586">
        <ele>1583</ele>
        <time>2021-11-03T10:29:16Z</time>
      </trkpt>
      <trkpt lat="42.60991" lon="2.09576">
        <ele>1582</ele>
        <time>2021-11-03T10:29:16Z</time>
      </trkpt>
      <trkpt lat="42.61023" lon="2.0955">
        <ele>1578</ele>
        <time>2021-11-03T10:29:16Z</time>
      </trkpt>
      <trkpt lat="42.61024" lon="2.09536">
        <ele>1578</ele>
        <time>2021-11-03T10:29:16Z</time>
      </trkpt>
      <trkpt lat="42.60969" lon="2.09384">
        <ele>1580</ele>
        <time>2021-11-03T10:29:16Z</time>
      </trkpt>
      <trkpt lat="42.60951" lon="2.09351">
        <ele>1580</ele>
        <time>2021-11-03T10:29:16Z</time>
      </trkpt>
      <trkpt lat="42.60929" lon="2.09324">
        <ele>1582</ele>
        <time>2021-11-03T10:29:16Z</time>
      </trkpt>
      <trkpt lat="42.6088" lon="2.09213">
        <ele>1583</ele>
        <time>2021-11-03T10:29:16Z</time>
      </trkpt>
      <trkpt lat="42.60898" lon="2.0919">
        <ele>1579</ele>
        <time>2021-11-03T10:29:16Z</time>
      </trkpt>
      <trkpt lat="42.60925" lon="2.09155">
        <ele>1574</ele>
        <time>2021-11-03T10:29:16Z</time>
      </trkpt>
      <trkpt lat="42.60938" lon="2.09147">
        <ele>1572</ele>
        <time>2021-11-03T10:29:16Z</time>
      </trkpt>
      <trkpt lat="42.6095" lon="2.09161">
        <ele>1572</ele>
        <time>2021-11-03T10:29:16Z</time>
      </trkpt>
      <trkpt lat="42.60978" lon="2.09249">
        <ele>1572</ele>
        <time>2021-11-03T10:29:16Z</time>
      </trkpt>
      <trkpt lat="42.60995" lon="2.09282">
        <ele>1572</ele>
        <time>2021-11-03T10:29:16Z</time>
      </trkpt>
      <trkpt lat="42.6102" lon="2.0939">
        <ele>1574</ele>
        <time>2021-11-03T10:29:16Z</time>
      </trkpt>
      <trkpt lat="42.6105" lon="2.09448">
        <ele>1572</ele>
        <time>2021-11-03T10:29:16Z</time>
      </trkpt>
      <trkpt lat="42.6107" lon="2.09498">
        <ele>1570</ele>
        <time>2021-11-03T10:29:16Z</time>
      </trkpt>
      <trkpt lat="42.61082" lon="2.0955">
        <ele>1567</ele>
        <time>2021-11-03T10:29:16Z</time>
      </trkpt>
      <trkpt lat="42.61078" lon="2.09589">
        <ele>1566</ele>
        <time>2021-11-03T10:29:16Z</time>
      </trkpt>
      <trkpt lat="42.61059" lon="2.09629">
        <ele>1568</ele>
        <time>2021-11-03T10:29:16Z</time>
      </trkpt>
      <trkpt lat="42.61036" lon="2.09659">
        <ele>1571</ele>
        <time>2021-11-03T10:29:16Z</time>
      </trkpt>
      <trkpt lat="42.61076" lon="2.09778">
        <ele>1567</ele>
        <time>2021-11-03T10:29:16Z</time>
      </trkpt>
      <trkpt lat="42.61074" lon="2.09895">
        <ele>1564</ele>
        <time>2021-11-03T10:29:16Z</time>
      </trkpt>
      <trkpt lat="42.61059" lon="2.09914">
        <ele>1562</ele>
        <time>2021-11-03T10:29:16Z</time>
      </trkpt>
      <trkpt lat="42.60897" lon="2.09894">
        <ele>1562</ele>
        <time>2021-11-03T10:29:16Z</time>
      </trkpt>
      <trkpt lat="42.60868" lon="2.09877">
        <ele>1564</ele>
        <time>2021-11-03T10:29:16Z</time>
      </trkpt>
      <trkpt lat="42.60822" lon="2.09882">
        <ele>1566</ele>
        <time>2021-11-03T10:29:16Z</time>
      </trkpt>
      <trkpt lat="42.60667" lon="2.09924">
        <ele>1567</ele>
        <time>2021-11-03T10:29:16Z</time>
      </trkpt>
      <trkpt lat="42.60628" lon="2.09937">
        <ele>1564</ele>
        <time>2021-11-03T10:29:16Z</time>
      </trkpt>
      <trkpt lat="42.60591" lon="2.09935">
        <ele>1564</ele>
        <time>2021-11-03T10:29:16Z</time>
      </trkpt>
      <trkpt lat="42.60555" lon="2.09948">
        <ele>1564</ele>
        <time>2021-11-03T10:29:16Z</time>
      </trkpt>
      <trkpt lat="42.60394" lon="2.10078">
        <ele>1561</ele>
        <time>2021-11-03T10:29:16Z</time>
      </trkpt>
      <trkpt lat="42.60359" lon="2.10089">
        <ele>1560</ele>
        <time>2021-11-03T10:29:16Z</time>
      </trkpt>
      <trkpt lat="42.60333" lon="2.10054">
        <ele>1560</ele>
        <time>2021-11-03T10:29:16Z</time>
      </trkpt>
      <trkpt lat="42.60324" lon="2.10031">
        <ele>1560</ele>
        <time>2021-11-03T10:29:16Z</time>
      </trkpt>
      <trkpt lat="42.60295" lon="2.1001">
        <ele>1561</ele>
        <time>2021-11-03T10:29:16Z</time>
      </trkpt>
      <trkpt lat="42.60284" lon="2.09984">
        <ele>1564</ele>
        <time>2021-11-03T10:29:16Z</time>
      </trkpt>
      <trkpt lat="42.6027" lon="2.09951">
        <ele>1567</ele>
        <time>2021-11-03T10:29:16Z</time>
      </trkpt>
      <trkpt lat="42.60267" lon="2.09936">
        <ele>1569</ele>
        <time>2021-11-03T10:29:16Z</time>
      </trkpt>
      <trkpt lat="42.60252" lon="2.09931">
        <ele>1570</ele>
        <time>2021-11-03T10:29:16Z</time>
      </trkpt>
      <trkpt lat="42.60235" lon="2.0993">
        <ele>1570</ele>
        <time>2021-11-03T10:29:16Z</time>
      </trkpt>
      <trkpt lat="42.60223" lon="2.09936">
        <ele>1570</ele>
        <time>2021-11-03T10:29:16Z</time>
      </trkpt>
      <trkpt lat="42.60217" lon="2.09947">
        <ele>1569</ele>
        <time>2021-11-03T10:29:16Z</time>
      </trkpt>
      <trkpt lat="42.60205" lon="2.09959">
        <ele>1569</ele>
        <time>2021-11-03T10:29:16Z</time>
      </trkpt>
      <trkpt lat="42.60178" lon="2.09964">
        <ele>1569</ele>
        <time>2021-11-03T10:29:16Z</time>
      </trkpt>
      <trkpt lat="42.60104" lon="2.0996">
        <ele>1570</ele>
        <time>2021-11-03T10:29:16Z</time>
      </trkpt>
      <trkpt lat="42.60082" lon="2.09968">
        <ele>1569</ele>
        <time>2021-11-03T10:29:16Z</time>
      </trkpt>
      <trkpt lat="42.60069" lon="2.09992">
        <ele>1568</ele>
        <time>2021-11-03T10:29:16Z</time>
      </trkpt>
      <trkpt lat="42.6006" lon="2.10084">
        <ele>1564</ele>
        <time>2021-11-03T10:29:16Z</time>
      </trkpt>
      <trkpt lat="42.60045" lon="2.10139">
        <ele>1561</ele>
        <time>2021-11-03T10:29:16Z</time>
      </trkpt>
      <trkpt lat="42.60043" lon="2.10168">
        <ele>1560</ele>
        <time>2021-11-03T10:29:16Z</time>
      </trkpt>
      <trkpt lat="42.5996" lon="2.10192">
        <ele>1559</ele>
        <time>2021-11-03T10:29:16Z</time>
      </trkpt>
      <trkpt lat="42.59929" lon="2.10227">
        <ele>1558</ele>
        <time>2021-11-03T10:29:16Z</time>
      </trkpt>
      <trkpt lat="42.59897" lon="2.10252">
        <ele>1557</ele>
        <time>2021-11-03T10:29:16Z</time>
      </trkpt>
      <trkpt lat="42.59272" lon="2.104">
        <ele>1550</ele>
        <time>2021-11-03T10:29:16Z</time>
      </trkpt>
      <trkpt lat="42.58675" lon="2.10374">
        <ele>1546</ele>
        <time>2021-11-03T10:29:16Z</time>
      </trkpt>
      <trkpt lat="42.58317" lon="2.10179">
        <ele>1546</ele>
        <time>2021-11-03T10:29:16Z</time>
      </trkpt>
      <trkpt lat="42.58223" lon="2.10151">
        <ele>1546</ele>
        <time>2021-11-03T10:29:16Z</time>
      </trkpt>
      <trkpt lat="42.58187" lon="2.10148">
        <ele>1546</ele>
        <time>2021-11-03T10:29:16Z</time>
      </trkpt>
      <trkpt lat="42.58105" lon="2.1013">
        <ele>1544</ele>
        <time>2021-11-03T10:29:16Z</time>
      </trkpt>
      <trkpt lat="42.58059" lon="2.10145">
        <ele>1543</ele>
        <time>2021-11-03T10:29:16Z</time>
      </trkpt>
      <trkpt lat="42.58017" lon="2.10177">
        <ele>1542</ele>
        <time>2021-11-03T10:29:16Z</time>
      </trkpt>
      <trkpt lat="42.58005" lon="2.10183">
        <ele>1542</ele>
        <time>2021-11-03T10:29:16Z</time>
      </trkpt>
      <trkpt lat="42.5798" lon="2.10205">
        <ele>1541</ele>
        <time>2021-11-03T10:29:16Z</time>
      </trkpt>
    </trkseg>
  </trk>
</gpx>